GSAT-18

Last updated on Jan. 20, 2021, 6:22 a.m. UTC

1 41793U 16060A   21019.84880748 -.00000072  00000-0  00000-0 0  9997
2 41793   0.0616  98.0181 0001545  99.1755 301.7955  1.00272234 15745
UTC
Height (km)
Latitude
Longitude
Inclination
Orbital Period
UTC large
Height (km)
Speed (km/s)
/
Latitude / Longitude
Inclination (degrees)
Orbital Period (minutes)
Azimuth
Elevation
Range (km)
Doppler Factor
iOS Compass Heading
iOS Angle

Next 30 passes for location: Hong Kong

Rise time Rise Azimuth (degrees) Set time Set Azimuth (degrees) Duration Max altitude (degrees)

No matching passes for this satellites